User: anonymous   Login
Location: Unspecified
(0.0000°N, 0.0000°E)
Time: 11:35:26
(UTC+00:00)
Language:

OBJECT AA - Orbit

View from above orbital plane
View from above orbital plane
View from above satellite
View from above satellite

Ground track
Ground track

The orbit data is extracted from the following two-line orbital elements,

1 42849U 17042AA  18347.15734450  .00000056  00000-0  10763-4 0  9995
2 42849  97.5831 243.7107 0007329 330.7074  29.3733 14.92282764 77030
Epoch (UTC): 13 December 2018 03:46:34
Eccentricity: 0.0007329
inclination: 97.5831°
perigee height: 586 km
apogee height: 596 km
right ascension of ascending node: 243.7107°
argument of perigee: 330.7074°
revolutions per day: 14.92282764
mean anomaly at epoch: 29.3733°
orbit number at epoch: 7703

The dashed part of the orbit path shows where the satellite is in the earth's shadow,  

DLR